Regional Weather Roundup
Issued by NWS

Home | Current Version | Previous Version | Text Only | Print | Product List | Glossary Off
Versions: 1 2 3 4 5 6 7 8 9 10 11 12 13 14 15 16 17 18 19 20 21 22 23 24 25 26 27 28 29 30 31 32 33 34 35 36 37 38 39 40 41 42 43 44 45 46 47 48 49 50

000
ASUS45 KBOU 212207
RWRCO

WEATHER ROUNDUP FOR COLORADO
NATIONAL WEATHER SERVICE DENVER/BOULDER CO
300 PM MST TUE FEB 21 2017

NOTE: "FAIR" INDICATES FEW OR NO CLOUDS BELOW 12000 FEET WITH NO
SIGNIFICANT WEATHER AND/OR OBSTRUCTIONS TO VISIBILITY.

COZ001>005-013-030-031-212300-
...NORTHWEST COLORADO...

CITY           SKY/WX    TMP DP  RH WIND       PRES   REMARKS
CRAIG          PTSUNNY   54  29  38 SW20G30   30.08S
HAYDEN         FAIR      52  27  37 SW16G26   30.07F
MEEKER         FAIR      53  32  44 SW14      30.10F
MOUNT WERNER   NOT AVBL
STEAMBOAT SPGS FAIR      50  28  43 W3        30.09F
WALDEN         NOT AVBL
$$

COZ006>008-011-212300-
...WEST CENTRAL VALLEYS...

CITY           SKY/WX    TMP DP  RH WIND       PRES   REMARKS
GRAND JUNCTION FAIR      60  39  45 NW13      30.12F
MONTROSE       FAIR      59  29  31 SW14      30.17F
EAGLE          PTSUNNY   55  27  33 SW23      30.13F
RIFLE          FAIR      58  34  40 W10       30.11F
DELTA          FAIR      61  33  35 CALM      30.14F
NUCLA          FAIR      55  32  41 S12G25    30.25F
$$

COZ017>023-064>068-212300-
...SOUTHWEST COLORADO...

CITY           SKY/WX    TMP DP  RH WIND       PRES   REMARKS
DURANGO        FAIR      54  31  41 SW12      30.28F
CORTEZ         FAIR      58  34  40 SW8       30.26F
PAGOSA SPRINGS FAIR      51  28  41 S10       30.31F
TELLURIDE      PTSUNNY   48  12  23 W9        30.33S
WOLF CREEK PAS FAIR      32  27  80 SW17G26   30.44F WCI  21
$$

COZ009-010-012-014-032>034-037-058>063-212300-
...CENTRAL COLORADO...

CITY           SKY/WX    TMP DP  RH WIND       PRES   REMARKS
ASPEN          FAIR      51  18  27 S12       30.16F
BUENA VISTA    FAIR      55   6  14 S3        30.18F
COPPER MTN     NOT AVBL
BERTHOUD PASS  FAIR      28  19  69 NW17G38   30.26F WCI  16
COTTONWOOD PAS CLOUDY    46  -4  12 SW15G24   30.26S
GUNNISON       FAIR      35  25  66 E6        30.26F WCI  30
KREMMLING      FAIR      59  27  29 SW21G35   30.12S
LEADVILLE      PTSUNNY   41   4  21 W9        30.23F
MONARCH PASS   CLOUDY    30  18  59 SW23G30   30.45S WCI  17
SALIDA         FAIR      56  22  26 S9        30.26F
SUNLIGHT       NOT AVBL
WILKERSON PASS FAIR      39  14  35 SW13G22   30.31F
$$

COZ069>075-212300-
...SAN LUIS VALLEY/SANGRE DE CRISTO MOUNTAINS...

CITY           SKY/WX    TMP DP  RH WIND       PRES   REMARKS
ALAMOSA        FAIR      56  28  34 S7        30.22F
LA VETA PASS   FAIR      46  19  34 NE12      30.33S
SAGUACHE       FAIR      52  27  37 SE8       30.24F
$$

COZ035-036-038>040-212300-
...NORTHERN COLORADO FRONT RANGE...

CITY           SKY/WX    TMP DP  RH WIND       PRES   REMARKS
DENVER INTL AP FAIR      72   9   8 W16G23    29.98F
DMNS CITY PARK   N/A     67   9  10 SW6G14    29.98F
AURORA         MOSUNNY   70   9   9 SW10G18   30.00F
FRONT RANGE AP MOSUNNY   73  10   9 W16G23    29.99F
ERIE MUNI ARPT FAIR      72   8   8 W12G20    29.96F
BOULDER MUN AP FAIR      70  16  12 SW14G24   29.97F
CENTENNIAL     FAIR      69   8   9 SW22      30.01F
BROOMFIELD     MOSUNNY   72  10   9 SW13G23   30.00F
FORT COLLINS   FAIR      67  21  17 SW17G23   29.98F
LONGMONT       FAIR      72  19  13 NW8G23    30.00F
$$

COZ041-046-047-076>085-087-088-212300-
...PIKES PEAK/PALMER DIVIDE AND SOUTHERN FOOTHILLS...

CITY           SKY/WX    TMP DP  RH WIND       PRES   REMARKS
COLO. SPRINGS  FAIR      70  -1   6 SW28      30.07F
A. F. ACADEMY  FAIR      66   4   8 SW13G20   30.08F
SCHRIEVER AFB  FAIR      69   3   7 W20G28    30.07F
ELLICOTT       FAIR     N/A N/A N/A MISG      30.05F
FALCON         FAIR      67   6   9 W17G24    30.11F
FORT CARSON    FAIR      70   9   9 S17G26    30.04F
LIMON          FAIR      73   5   7 W14G23    30.00F
MONUMENT HILL  FAIR      63  10  13 W17       30.11F
TRINIDAD       FAIR      77  -1   5 SW12      30.05S
$$

COZ042>045-048>051-090-091-212300-
...NORTHEAST COLORADO...

CITY           SKY/WX    TMP DP  RH WIND       PRES   REMARKS
GREELEY ARPT   FAIR      69  18  14 W21G28    29.98
AKRON          FAIR      72  11   9 W25G39    29.94F
BURLINGTON     FAIR      77  19  11 NW7       29.96F
WRAY           NOT AVBL
STERLING       FAIR      73  21  14 W30G36    29.88F
HOLYOKE        FAIR      79  18  10 W21G28    29.89S
FORT MORGAN    FAIR      71  12  10 W30G45    29.94F
$$

COZ086-089-092>099-212300-
...SOUTHEAST COLORADO...

CITY           SKY/WX    TMP DP  RH WIND       PRES   REMARKS
PUEBLO         FAIR      76   6   7 NW24G30   29.99F
LA JUNTA       FAIR      80   6   6 NW20G29   29.96F
LAMAR          FAIR      79  18  10 SW7       29.94F
SPRINGFIELD      N/A     76  17  11 CALM      30.00F
$$



USA.gov is the U.S. government's official web portal to all federal, state and local government web resources and services.